{"data":{"norad_id":53564,"epoch":"2026-05-25T04:37:54.653952Z","epoch_age_seconds":58222,"freshness":"FRESH","line1":"1 53564U 22101AP  26145.19299368 -.00000025  00000+0  16518-4 0  9996","line2":"2 53564  53.2142  70.7502 0001341  72.5792 287.5347 15.08841619207990","mean_motion":15.08841619,"eccentricity":0.0001341,"inclination_deg":53.2142,"raan_deg":70.7502,"arg_perigee_deg":72.5792,"mean_anomaly_deg":287.5347,"bstar":1.6518e-5,"rev_number":20799,"period_min":95.437452272451,"perigee_km":538.81075323667,"apogee_km":540.66612742977,"semimajor_km":6917.8754403332,"source":"CELESTRAK","updated_at":"2026-05-25T13:38:17.447553Z"}}